Weather History for LFMV - May, 2013

Change the Weather History Date:

Monday, May 27, 2013

  Actual Average (LFTW) Record (LFTW)
Temperature  
Mean Temperature 58 °F -  
Max Temperature 71 °F 76 °F 87 °F (1997)
Min Temperature 46 °F 56 °F 46 °F (2013)
Degree Days  
Heating Degree Days 6    
Growing Degree Days 8 (Base 50)    
Moisture  
Dew Point 44 °F    
Average Humidity 60    
Maximum Humidity 88    
Minimum Humidity 35    
Precipitation  
Precipitation 0.00 in - - ()
Sea Level Pressure  
Sea Level Pressure 29.90 in    
Wind  
Wind Speed 9 mph ()    
Max Wind Speed 17 mph    
Max Gust Speed -    
Visibility 6.2 miles    
Events      
Averages and records for this station are not official NWS values.
T = Trace of Precipitation, MM = Missing Value Source: Averaged Metar Reports

Daily Weather History Graph

Daily Weather History Graph

Search for Another Location

Airport or City:

Trip Planner

Search our weather history database for the weather conditions in past years. The results will help you decide how hot, cold, wet, or windy it might be!

Date:

Astronomy

May. 27, 2013 Rise Set
Actual Time 6:03 AM CEST 9:11 PM CEST
Civil Twilight 5:29 AM CEST 9:46 PM CEST
Nautical Twilight 4:44 AM CEST 10:31 PM CEST
Astronomical Twilight 3:50 AM CEST 11:25 PM CEST
Moon 11:36 PM CEST (5/27) 8:23 AM CEST (5/27)
Length of Visible Light 16h 17m
Length of Day
15h 07m
Waning Gibbous, 93% of the Moon is Illuminated
May 27
Waning Gibbous
May 31
Last Quarter
Jun 8
New
Jun 16
First Quarter
Jun 23
Full

Hourly Weather History & Observations

Time (CEST) Temp. Windchill Dew Point Humidity Pressure Visibility Wind Dir Wind Speed Gust Speed Precip Events Conditions
12:00 AM 53.6 °F - 37.4 °F 54% 29.98 in 6.2 mi North 17.3 mph - N/A   Unknown
12:30 AM 53.6 °F - 37.4 °F 54% 29.98 in 6.2 mi North 16.1 mph - N/A   Unknown
1:00 AM 51.8 °F - 37.4 °F 58% 29.95 in 6.2 mi NNW 16.1 mph - N/A   Unknown
1:30 AM 51.8 °F - 39.2 °F 62% 29.95 in 6.2 mi North 10.4 mph - N/A   Unknown
2:00 AM 50.0 °F - 39.2 °F 66% 29.95 in 6.2 mi North 10.4 mph - N/A   Unknown
2:30 AM 50.0 °F - 39.2 °F 66% 29.95 in 6.2 mi NNW 10.4 mph - N/A   Unknown
3:00 AM 50.0 °F - 39.2 °F 66% 29.92 in 6.2 mi North 11.5 mph - N/A   Unknown
3:30 AM 50.0 °F - 39.2 °F 66% 29.92 in 6.2 mi North 11.5 mph - N/A   Unknown
4:00 AM 48.2 °F - 39.2 °F 71% 29.92 in 6.2 mi North 11.5 mph - N/A   Unknown
4:30 AM 48.2 °F - 39.2 °F 71% 29.92 in 6.2 mi North 10.4 mph - N/A   Unknown
5:00 AM 48.2 °F - 39.2 °F 71% 29.92 in 6.2 mi North 9.2 mph - N/A   Unknown
5:30 AM 46.4 °F 42.4 °F 39.2 °F 76% 29.92 in 6.2 mi North 8.1 mph - N/A   Unknown
6:00 AM 46.4 °F 43.5 °F 39.2 °F 76% 29.92 in 6.2 mi North 5.8 mph - N/A   Unknown
6:30 AM 46.4 °F 44.3 °F 39.2 °F 76% 29.92 in 6.2 mi North 4.6 mph - N/A   Unknown
7:00 AM 48.2 °F - 39.2 °F 71% 29.92 in 6.2 mi NE 4.6 mph - N/A   Unknown
7:30 AM 50.0 °F - 41.0 °F 71% 29.95 in 6.2 mi North 4.6 mph - N/A   Unknown
8:00 AM 51.8 °F - 41.0 °F 67% 29.95 in 6.2 mi North 6.9 mph - N/A   Unknown
8:30 AM 53.6 °F - 41.0 °F 62% 29.95 in 6.2 mi North 6.9 mph - N/A   Unknown
9:00 AM 55.4 °F - 42.8 °F 63% 29.95 in 6.2 mi North 4.6 mph - N/A   Unknown
9:30 AM 57.2 °F - 41.0 °F 55% 29.95 in 6.2 mi NNE 8.1 mph - N/A   Unknown
10:00 AM 59.0 °F - 41.0 °F 51% 29.95 in 6.2 mi North 8.1 mph - N/A   Unknown
10:30 AM 60.8 °F - 42.8 °F 52% 29.95 in 6.2 mi North 4.6 mph - N/A   Unknown
11:00 AM 60.8 °F - 41.0 °F 48% 29.92 in 6.2 mi NNE 6.9 mph - N/A   Unknown
11:30 AM 62.6 °F - 44.6 °F 52% 29.92 in 6.2 mi Variable 2.3 mph - N/A   Unknown
12:00 PM 62.6 °F - 42.8 °F 48% 29.92 in 6.2 mi Variable 1.2 mph - N/A   Unknown
12:30 PM 64.4 °F - 42.8 °F 45% 29.92 in 6.2 mi Variable 3.5 mph - N/A   Unknown
1:00 PM 66.2 °F - 39.2 °F 37% 29.89 in 6.2 mi Variable 3.5 mph - N/A   Unknown
1:30 PM 66.2 °F - 42.8 °F 43% 29.89 in 6.2 mi Variable 2.3 mph - N/A   Unknown
2:00 PM 68.0 °F - 42.8 °F 40% 29.89 in 6.2 mi SW 5.8 mph - N/A   Unknown
2:30 PM 69.8 °F - 44.6 °F 40% 29.86 in 6.2 mi Variable 3.5 mph - N/A   Unknown
3:00 PM 69.8 °F - 42.8 °F 38% 29.86 in 6.2 mi Variable 2.3 mph - N/A   Unknown
3:30 PM 71.6 °F - 42.8 °F 35% 29.86 in 6.2 mi Variable 3.5 mph - N/A   Unknown
4:00 PM 71.6 °F - 44.6 °F 38% 29.83 in 6.2 mi Variable 4.6 mph - N/A   Unknown
4:30 PM 69.8 °F - 48.2 °F 46% 29.83 in 6.2 mi SW 12.7 mph - N/A   Unknown
5:00 PM 68.0 °F - 44.6 °F 43% 29.86 in 6.2 mi SSW 15.0 mph - N/A   Unknown
5:30 PM 66.2 °F - 48.2 °F 52% 29.86 in 6.2 mi SSW 13.8 mph - N/A   Unknown
6:00 PM 66.2 °F - 50.0 °F 56% 29.86 in 6.2 mi SSW 16.1 mph - N/A   Overcast
6:30 PM 64.4 °F - 51.8 °F 64% 29.86 in 6.2 mi SSW 15.0 mph - N/A   Overcast
7:00 PM 64.4 °F - 50.0 °F 59% 29.86 in 6.2 mi SSW 15.0 mph - N/A   Overcast
7:30 PM 62.6 °F - 51.8 °F 68% 29.86 in 6.2 mi SSW 12.7 mph - N/A   Overcast
8:00 PM 60.8 °F - 50.0 °F 68% 29.86 in 6.2 mi South 10.4 mph - N/A   Mostly Cloudy
8:30 PM 60.8 °F - 50.0 °F 68% 29.86 in 6.2 mi SSW 12.7 mph - N/A   Mostly Cloudy
9:00 PM 59.0 °F - 50.0 °F 72% 29.86 in 6.2 mi SSW 9.2 mph - N/A   Overcast
9:30 PM 59.0 °F - 50.0 °F 72% 29.86 in 6.2 mi SSW 6.9 mph - N/A   Overcast
10:00 PM 57.2 °F - 51.8 °F 82% 29.86 in 6.2 mi Variable 2.3 mph - N/A   Scattered Clouds
10:30 PM 55.4 °F - 50.0 °F 82% 29.86 in 6.2 mi Variable 2.3 mph - N/A   Partly Cloudy
11:00 PM 53.6 °F - 50.0 °F 88% 29.86 in 6.2 mi ESE 3.5 mph - N/A   Mostly Cloudy
11:30 PM 55.4 °F - 51.8 °F 88% 29.86 in 6.2 mi SSE 3.5 mph - N/A   Overcast